sat.trackr.live / text

‹ back to catalog

STARLINK-3844

NORAD 52705 · 2022-053BB

PAYLOAD ACTIVE UNKNOWN

§ Identity

Operator
Country
US
Launch date
2022-05-18
Launch site
AFETR
Launch vehicle
Mass (kg)
RCS (m²)

Purposes: comms

External: N2YO · Heavens-Above · Gunter

§ Orbital elements

Epoch: 2026-09-19T21:40:52.883904Z

Period
93.79 min
Inclination
53.1599°
Eccentricity
0.0001261
Mean motion
15.35398138 rev/d
Perigee alt
458.9 km
Apogee alt
460.6 km
Semi-major
6,837.9 km
B*
3.7337e-5
RAAN
328.3728°
Arg perigee
83.7313°
Mean anomaly
276.3834°
Rev number
24,082

§ Raw data

STARLINK-38441 52705U 22053BB  26262.90338986  .00000922  00000+0  37337-4 0  99942 52705  53.1599 328.3728 0001261  83.7313 276.3834 15.35398138240826

JSON: /api/v1/satellites/52705 · /tle

For live sub-satellite position, see the globe view (requires WebGL).

§ Visibility from observer

Set your observer location to see the next 7 days of passes ≥ 10°. The values pass through the URL so the page stays shareable.

No JS? Fill the form by hand. The geolocation button needs JavaScript.